Tracking 32936 objects as of 16-Jan-2026
HD Live streaming from Space Station
objects crossing your sky now

STARLINK-11574

Track STARLINK-11574 now!
10-day predictions
STARLINK-11574 is classified as:


NORAD ID: 63010
Int'l Code: 2025-032F
Perigee: 362.3 km
Apogee: 364.6 km
Inclination: 43.0 °
Period: 91.7 minutes
Semi major axis: 6734 km
RCS: Unknown
Launch date: February 15, 2025
Source: United States (US)
Launch site: AIR FORCE EASTERN TEST RANGE (AFETR)
Your satellite tracking list
Your tracking list is empty




NASA's NSSDC Master Catalog

Two Line Element Set (TLE):
1 63010U 25032F   26015.73537163  .00172060  00000-0  13139-2 0  9996
2 63010  42.9996 154.6938 0001705 297.0558  63.0135 15.70893798 53885
Source of the keplerian elements: AFSPC